Location: Hernandez
(10.3704°N, 67.2181°W)
Time: 05:53:40
(UTC+00:00)

Cosmos 1818 - Pass Details

Date: 13 April 2024
Orbit: 770 x 802 km, 65.0° (Epoch: 25 May)

Event Time Altitude Azimuth Distance (km) Brightness Sun altitude
Rises 23:14:34 0° 340° (NNW) 3,293 7.2 -9.3°
Reaches altitude 10° 23:17:00 10° 342° (NNW) 2,361 6.5 -9.9°
Maximum altitude 23:22:26 77° 68° (ENE) 812 3.5 -11.2°
Drops below altitude 10° 23:27:49 10° 154° (SSE) 2,343 5.7 -12.5°
Enters shadow 23:29:46 - 155° (SSE) 3,090 6.3 -12.9°
